Theta_e
313 318 320 322 328 332 338 338 337 338 338 335 334 335 336 337 341 353 353 354 346 350 339 341 345 345 343 339 338 341 344 344 343 343 343 341 332 321 322 325 326 328 329 326 322 322 324 324 325
316 317 320 324 329 335 338 337 337 337 335 332 334 335 337 346 349 353 355 350 348 351 339 340 344 343 339 337 338 341 343 344 343 344 343 338 331 321 324 327 327 326 322 320 320 322 325 325 325
312 315 321 328 331 333 336 335 336 335 332 332 334 333 335 346 352 353 354 350 350 351 346 340 341 339 336 336 339 342 343 343 343 342 340 334 327 321 322 325 323 322 321 321 322 323 325 325 326
316 316 319 327 332 332 332 333 332 332 332 331 332 334 335 350 351 353 352 350 351 349 349 338 340 335 334 336 339 341 341 342 341 339 333 330 323 321 321 321 321 322 322 321 322 323 324 325 325
316 318 320 321 323 330 329 328 329 329 329 330 330 332 334 346 346 353 352 349 350 349 349 338 338 333 331 333 336 337 339 339 337 332 330 325 320 321 321 321 322 322 321 321 322 323 323 324 324
317 318 319 320 322 323 326 327 327 327 327 328 329 332 333 347 354 354 352 350 349 349 349 338 336 332 329 329 331 332 332 332 331 330 326 321 320 321 321 322 322 321 321 320 321 322 322 323 323
317 319 319 320 321 321 322 323 324 327 327 327 327 330 335 351 356 355 351 349 349 348 348 338 333 331 331 330 330 330 330 330 330 328 321 320 321 321 321 322 321 320 320 320 320 320 320 321 321
316 319 318 318 319 320 321 320 321 322 323 326 326 333 340 354 357 355 351 349 349 347 346 345 333 333 331 330 330 330 329 329 329 322 319 320 321 321 322 322 321 320 321 321 320 319 319 319 319
315 317 317 318 318 319 318 319 319 321 322 323 326 330 342 352 356 355 352 350 349 347 346 345 343 342 341 339 328 329 329 329 325 321 320 322 323 323 323 323 321 320 321 321 320 319 319 319 319
315 317 318 318 318 318 318 317 318 319 321 322 324 334 343 349 356 356 354 351 350 348 346 344 343 343 342 340 336 326 329 328 322 322 322 326 337 339 337 330 320 320 320 321 321 320 319 319 328
315 316 318 316 315 315 316 316 316 317 319 321 324 327 337 342 346 356 355 353 351 349 346 344 345 344 343 340 340 336 337 335 328 326 327 327 338 334 323 329 321 321 321 323 324 322 326 331 329
314 315 315 315 314 315 316 315 316 316 317 318 319 323 322 323 332 343 354 354 352 350 348 345 346 345 344 343 342 339 337 336 336 333 322 333 329 335 334 334 335 330 334 333 328 333 328 320 320
314 314 314 314 314 314 314 314 315 314 315 315 317 317 318 320 322 323 336 353 352 350 349 347 346 347 345 345 345 344 343 341 340 339 328 333 335 336 332 335 333 335 334 333 333 332 327 327 321
314 314 313 313 314 315 315 315 314 314 314 314 315 316 317 319 321 323 329 346 352 350 350 349 346 348 346 343 347 347 347 344 344 344 343 331 334 335 338 329 328 335 334 334 333 333 332 333 331
313 315 317 317 316 317 316 316 316 315 314 314 315 316 317 318 320 322 326 343 351 351 351 350 348 347 344 341 345 347 348 347 347 347 347 339 334 337 333 341 341 340 339 328 327 327 327 327 332
317 318 318 318 319 318 316 318 319 318 316 315 315 315 316 318 320 322 327 342 352 352 351 351 348 348 344 347 348 348 347 348 347 347 348 344 337 339 336 342 344 344 341 343 343 343 343 342 340
318 318 318 318 319 319 318 320 321 319 318 317 316 317 317 318 321 323 329 344 352 352 351 351 347 345 349 349 348 345 349 344 344 347 346 334 331 333 337 340 346 340 342 346 345 344 343 340 339
318 318 318 319 320 318 319 320 321 320 320 320 319 319 318 319 323 324 337 346 351 353 348 345 344 339 333 341 349 345 349 346 339 341 336 330 331 331 329 332 343 340 337 343 344 341 343 344 344
318 319 319 319 320 320 320 321 321 321 321 321 321 320 319 320 322 326 336 345 345 338 346 341 343 339 333 347 344 341 349 349 344 343 337 334 331 331 328 332 333 334 338 341 342 342 344 343 347
318 319 320 319 320 319 321 321 321 322 322 322 322 321 321 321 324 326 324 324 333 341 343 339 341 336 331 330 330 330 335 344 346 343 340 337 336 338 337 337 338 340 341 343 343 343 346 346 345
318 319 319 319 320 320 320 321 321 322 321 321 322 321 322 322 325 326 325 325 329 329 333 344 349 338 331 331 330 329 324 329 339 345 341 336 335 337 340 341 341 341 343 347 342 338 337 341 339
319 319 319 319 320 321 320 321 322 321 321 321 321 323 323 323 324 326 326 326 326 325 324 327 338 328 332 337 337 328 326 325 332 341 341 337 338 339 341 341 341 339 343 341 338 336 333 336 335
319 319 320 320 321 321 321 321 321 321 321 322 322 322 324 325 324 324 323 324 324 324 323 320 323 327 340 339 341 338 341 345 345 342 342 339 340 341 344 343 339 327 324 324 323 322 323 329 331
319 319 320 320 320 321 321 321 321 321 321 322 323 325 325 325 325 325 323 323 322 323 321 320 322 321 320 325 331 344 342 345 348 344 342 341 342 339 338 327 321 320 323 318 321 318 320 319 321
319 321 321 321 320 320 320 320 321 322 322 324 326 325 326 327 327 327 327 326 323 323 326 323 326 319 319 322 325 335 346 345 346 343 342 341 338 336 324 320 318 318 318 320 320 319 320 323 325
320 321 321 321 321 321 320 319 320 322 325 324 324 326 326 327 328 329 328 327 326 324 322 332 335 342 335 341 338 341 345 346 344 342 338 338 331 324 318 317 318 319 319 320 320 322 322 323 323
320 321 321 322 321 321 321 321 322 324 325 325 325 326 327 327 328 329 330 328 327 328 332 336 340 344 346 346 345 344 343 343 340 334 325 323 323 328 318 318 319 320 321 321 318 318 320 318 318
320 322 322 322 323 323 321 321 321 324 324 325 326 325 325 325 326 327 329 331 331 333 335 337 338 340 340 339 339 337 330 325 322 320 319 329 326 323 319 319 320 322 321 318 314 317 318 313 315
322 323 323 325 324 325 324 323 325 325 325 325 325 324 323 323 323 323 324 327 329 330 331 331 330 329 329 329 329 330 330 330 329 329 329 330 326 320 324 323 325 324 322 319 315 313 315 318 318
323 324 325 329 326 325 325 326 326 326 325 324 324 323 323 323 323 322 321 321 322 324 325 326 328 327 328 328 329 330 329 329 329 329 329 328 327 327 326 325 323 322 321 321 321 321 319 318 319
Wind_Speed
11 9 5 6 7 6 12 3 5 6 6 4 10 8 11 12 8 5 4 10 17 21 24 25 26 26 25 24 22 25 26 25 22 18 15 13 11 15 18 18 17 15 13 11 9 9 8 8 8
8 6 5 6 8 13 11 7 9 4 5 10 9 6 9 3 3 2 3 10 19 22 25 26 27 26 24 22 22 26 27 25 22 18 16 13 12 16 18 18 16 13 11 9 9 8 7 6 6
8 9 11 6 12 16 12 8 9 6 6 9 7 8 8 4 2 1 2 15 22 22 25 27 27 27 24 22 24 26 26 24 21 18 15 13 13 18 18 16 14 11 9 8 8 8 7 5 5
6 7 8 11 19 14 16 4 2 5 6 5 7 12 6 3 3 2 5 19 22 23 24 26 27 26 26 24 25 25 25 23 21 18 15 14 15 18 18 15 13 11 9 8 7 7 6 5 5
9 7 11 16 24 21 10 14 9 11 9 9 11 10 13 6 9 5 12 21 23 23 22 28 28 26 26 26 25 25 24 23 20 18 16 15 17 18 17 15 12 10 8 7 7 7 6 5 5
11 10 11 17 21 20 19 18 19 17 17 14 13 12 13 5 3 6 15 20 21 22 22 28 28 26 25 25 25 25 24 23 20 17 16 16 18 18 16 14 12 10 9 8 7 6 6 6 5
16 10 17 20 19 17 17 18 17 17 15 16 11 13 9 4 6 10 16 20 22 22 23 27 28 27 24 24 24 24 23 22 19 17 17 19 20 19 17 14 12 11 10 8 7 7 7 6 6
13 8 17 17 16 21 16 14 19 19 21 18 15 8 3 4 7 12 17 20 21 22 22 24 29 27 27 26 24 23 22 20 18 17 19 19 19 19 17 14 13 11 10 9 8 8 8 7 7
8 8 13 17 15 15 5 12 16 19 14 14 14 9 10 4 9 13 18 21 22 23 24 23 25 26 24 23 26 24 22 20 19 20 21 20 19 18 17 16 15 13 11 10 9 9 8 8 7
14 11 15 9 9 12 15 15 13 16 16 21 17 8 1 3 8 14 20 25 27 28 27 25 25 26 25 23 23 26 25 24 23 24 24 21 15 14 14 16 16 14 13 12 11 10 10 9 6
12 15 9 10 15 16 18 20 18 19 20 21 18 12 5 4 7 13 18 22 26 25 25 27 28 27 26 23 22 23 22 21 24 25 23 23 17 17 19 14 16 16 15 12 12 11 9 8 9
10 13 15 13 12 16 18 21 21 21 26 23 22 12 16 14 12 13 19 22 24 26 26 27 27 28 28 24 23 22 21 22 21 24 26 22 21 18 15 14 12 15 11 11 13 9 11 12 12
15 13 13 16 18 21 22 23 22 28 27 27 28 25 25 24 21 19 21 23 23 26 27 28 27 27 28 27 22 22 22 21 20 20 25 23 20 18 17 16 15 13 12 12 12 12 13 12 14
7 11 14 16 19 17 19 20 22 19 12 24 33 35 32 28 26 23 21 27 27 27 28 27 29 28 28 29 24 23 21 20 20 19 19 24 21 20 16 19 17 14 14 13 13 12 12 12 13
10 12 14 17 20 15 9 16 24 33 30 28 30 29 30 30 28 25 22 29 29 29 26 28 28 28 31 31 28 23 21 20 19 19 20 22 24 22 20 15 14 14 14 17 17 19 17 18 16
13 10 11 6 7 14 7 13 15 15 21 27 31 29 29 30 30 25 22 26 27 24 26 27 27 27 30 28 24 22 20 19 19 18 18 21 24 24 22 19 15 14 15 14 13 13 14 15 15
10 10 8 5 3 3 11 13 10 7 12 18 24 25 25 27 28 23 21 25 25 26 23 25 28 22 22 22 25 25 22 24 20 19 18 19 21 21 22 20 16 20 17 15 15 15 15 16 17
13 12 9 8 7 5 8 17 17 14 13 16 19 21 22 25 25 20 19 23 23 23 26 25 24 20 12 27 25 19 20 21 23 27 14 19 22 21 19 16 20 22 19 15 14 14 12 15 15
4 8 10 11 8 10 14 12 14 14 10 14 18 17 18 21 19 12 13 15 17 17 19 29 22 17 13 22 15 15 20 19 23 24 24 22 27 21 19 19 23 23 17 15 15 15 15 16 14
11 11 12 12 6 5 9 14 14 10 8 7 11 12 13 19 23 12 7 14 13 19 30 32 28 35 19 23 18 15 13 19 25 25 25 10 24 16 18 18 19 17 15 16 16 15 12 13 12
12 13 12 13 11 13 15 16 14 7 7 3 6 5 6 14 24 19 12 10 25 20 19 25 35 34 34 27 26 31 19 34 36 30 30 24 28 24 20 20 17 15 16 11 13 12 13 12 11
13 12 13 14 13 11 5 11 4 1 6 5 0 4 4 7 18 21 20 20 14 24 33 32 28 38 38 39 35 42 38 42 40 28 32 29 23 22 21 17 17 16 10 11 10 9 9 12 12
13 8 10 13 13 14 15 9 11 2 11 7 3 3 8 7 7 14 19 24 35 37 27 29 36 39 45 42 35 32 33 23 19 29 27 24 24 21 18 16 16 13 9 11 11 8 8 10 13
3 7 9 9 11 13 16 15 12 10 6 3 1 5 7 9 10 10 10 15 21 23 36 33 29 43 32 33 30 29 25 22 24 22 25 24 24 22 18 16 13 10 11 11 9 9 10 9 13
9 9 7 10 10 11 7 8 12 6 3 2 5 6 7 8 8 10 9 6 11 13 16 23 29 38 32 31 28 24 21 24 20 19 22 23 21 21 17 14 12 13 12 12 11 12 12 12 14
16 14 10 9 10 10 8 7 5 5 3 1 2 4 6 8 10 12 12 10 7 8 12 12 14 16 22 22 22 19 19 18 22 21 21 20 17 15 13 13 14 15 14 14 15 11 11 12 15
16 9 14 15 9 9 6 10 6 8 7 4 2 4 7 10 12 14 13 10 7 2 3 6 10 13 16 16 19 19 21 22 17 19 18 16 15 14 14 14 15 17 17 17 17 14 14 15 14
15 6 10 10 17 17 10 8 8 11 8 4 3 5 7 8 11 14 15 16 13 11 9 9 10 11 12 13 12 15 18 18 18 17 17 15 14 13 13 14 17 18 18 18 18 14 15 15 14
8 11 11 9 6 10 11 2 11 7 2 3 3 5 6 7 8 11 14 15 15 15 14 15 14 14 14 14 14 14 12 12 13 12 11 11 12 12 13 14 16 17 18 18 20 20 18 18 17
5 9 7 8 13 8 9 7 5 4 2 2 4 4 5 4 6 8 9 10 11 11 11 9 9 8 6 8 8 9 8 7 7 8 8 8 10 11 14 16 19 20 20 20 21 21 20 21 22
Wind_Direction
250 255 275 281 251 231 252 217 305 203 184 24 315 300 316 299 293 0 348 169 161 166 175 180 177 175 176 177 178 183 181 179 175 171 166 161 159 163 161 154 153 153 154 158 154 147 143 135 131
225 225 228 258 251 237 234 210 222 205 22 321 307 307 292 335 357 333 112 163 164 167 175 180 179 178 179 179 179 180 180 180 178 176 175 173 173 169 161 160 158 160 159 159 155 154 150 140 133
201 191 233 228 241 244 252 156 233 249 308 329 307 326 318 353 345 358 227 165 161 166 172 184 182 180 180 179 180 180 181 181 183 183 185 185 184 173 166 166 164 165 163 164 157 159 151 144 139
178 193 236 240 240 234 258 175 170 246 264 295 312 302 290 254 322 286 211 164 168 167 171 184 183 183 182 180 180 183 186 188 188 190 194 193 188 177 171 171 170 170 170 169 163 163 158 159 155
188 222 236 229 243 250 210 266 278 274 279 273 308 290 288 277 278 241 176 171 170 171 173 181 183 187 186 185 184 188 192 193 194 195 199 198 186 180 176 175 177 177 179 176 173 169 174 175 174
199 241 232 236 240 238 249 250 262 261 270 274 280 287 289 256 228 191 176 175 174 175 175 184 185 187 189 189 190 193 195 196 198 201 205 195 184 181 182 183 186 186 187 188 182 182 189 196 200
244 220 242 250 255 249 232 234 257 260 258 261 271 288 286 257 215 180 176 177 179 178 175 184 186 187 192 193 196 198 197 199 202 206 204 192 185 185 189 193 196 196 195 196 193 197 205 214 224
239 259 254 242 253 255 247 232 248 252 259 259 259 254 228 2 199 180 175 181 184 183 184 182 187 190 190 196 198 202 201 202 206 205 198 191 188 192 196 203 207 206 205 207 207 210 216 225 238
217 243 243 241 242 254 228 252 250 256 262 245 249 274 305 271 193 187 180 184 187 190 191 186 184 187 187 193 197 199 204 206 205 199 196 194 196 200 207 212 213 214 215 219 220 224 229 237 251
214 231 246 260 275 259 268 257 263 266 253 241 238 218 15 103 205 202 197 191 192 193 194 192 188 188 186 191 195 197 202 203 200 199 200 199 196 200 201 220 219 222 224 228 232 236 241 245 253
216 248 255 233 247 257 266 265 258 253 254 242 243 209 244 228 236 227 218 208 201 198 198 195 191 191 189 190 193 192 195 197 199 201 204 201 203 214 214 220 224 229 232 237 247 245 249 241 246
241 229 251 252 256 253 259 265 263 255 256 258 246 257 267 255 247 244 231 220 209 204 201 200 199 197 192 194 195 194 195 197 198 202 207 204 208 212 206 214 219 226 224 227 234 238 243 265 269
232 249 250 253 256 255 265 266 268 262 259 257 258 263 261 262 256 257 243 228 219 213 208 203 202 201 200 193 201 198 198 203 203 205 211 207 208 214 218 219 217 221 226 235 238 244 254 261 268
177 239 252 250 252 254 253 264 261 262 254 247 251 251 253 256 254 253 246 227 218 215 212 205 204 205 203 204 202 203 204 209 206 210 213 215 217 222 218 228 232 229 232 235 241 249 254 261 259
228 248 242 235 241 239 263 254 251 255 250 245 251 251 250 251 253 254 256 228 221 215 209 205 205 207 210 211 210 207 210 205 215 214 215 223 224 227 223 224 226 230 234 245 255 262 268 270 271
221 229 243 148 217 219 210 284 285 262 233 236 247 252 249 248 247 249 255 226 222 217 213 205 203 208 216 214 213 213 212 211 213 219 220 225 234 228 237 230 230 230 240 245 248 252 255 258 261
203 239 198 236 68 151 211 286 307 297 250 233 238 247 244 245 241 250 244 219 217 217 214 209 206 208 220 226 217 218 216 222 220 217 218 241 241 241 238 241 235 245 243 244 248 253 255 258 262
215 214 214 234 142 217 246 266 278 277 246 235 237 245 238 235 235 249 231 214 214 217 224 223 209 199 208 263 233 233 223 230 228 227 223 245 254 234 220 245 239 242 244 240 242 241 250 258 262
257 250 249 259 261 273 275 274 287 287 257 243 236 244 231 226 223 224 197 201 223 242 244 216 215 201 208 210 226 259 246 228 236 228 231 224 227 229 215 205 234 232 231 236 247 256 260 261 268
239 251 253 267 270 259 265 292 283 267 266 268 233 224 223 214 217 223 236 243 232 220 224 226 224 219 229 268 273 320 289 262 257 263 238 240 254 229 221 218 225 235 240 246 252 261 256 265 259
230 248 258 267 268 280 260 268 252 215 233 258 277 256 218 214 223 227 241 233 232 265 256 234 211 221 211 211 252 258 288 283 256 237 236 220 217 218 221 224 225 239 242 242 251 246 255 253 271
243 230 248 268 266 260 182 273 144 232 278 208 32 22 7 238 223 234 238 226 212 216 245 244 232 239 243 226 221 219 213 217 244 241 232 228 224 225 227 226 229 228 218 225 237 236 231 265 266
254 254 257 254 253 259 244 244 266 163 240 186 173 0 4 347 292 260 250 240 224 235 240 250 242 229 226 235 227 226 222 224 240 232 221 220 228 226 220 214 212 223 225 240 232 246 254 250 268
177 240 230 252 251 241 242 243 250 224 222 154 126 1 4 347 331 315 270 243 243 246 242 230 238 254 245 235 232 220 228 215 207 214 212 213 215 219 211 216 226 231 226 240 251 263 265 273 264
213 234 227 217 219 242 224 228 245 69 117 328 333 345 4 3 3 352 343 288 250 239 239 238 238 239 238 234 231 221 211 206 205 204 208 216 209 208 212 219 229 229 233 246 254 270 264 273 270
210 226 245 235 238 232 143 228 229 101 122 101 18 5 8 18 16 11 6 358 330 273 247 236 228 218 217 212 213 208 198 198 202 208 208 199 194 202 216 221 230 236 247 255 261 264 270 263 273
220 226 247 277 269 286 259 168 203 169 165 160 100 65 42 36 29 28 27 35 43 65 236 215 204 201 196 188 185 189 199 206 187 184 183 188 194 204 222 233 240 242 250 255 264 275 264 274 277
242 247 207 227 254 245 233 226 272 172 178 152 124 77 64 57 53 50 49 43 57 76 92 116 129 139 162 163 160 165 160 160 173 184 188 196 207 214 240 244 244 247 250 254 265 261 266 268 272
183 224 234 293 271 252 260 281 27 62 114 167 125 101 82 73 66 64 61 63 69 78 82 89 98 109 119 128 141 155 160 167 179 188 195 204 216 233 240 248 244 245 247 251 258 262 259 253 256
271 278 275 222 246 261 287 271 89 85 86 191 158 143 117 96 70 63 65 62 66 75 79 81 94 110 121 126 138 147 155 169 181 189 207 222 237 245 246 245 246 248 249 252 253 254 257 258 255